Location: Jetmore
(38.0845°N, 99.8935°W)
Time: 21:58:45
(UTC+00:00)

Cosmos 1655 Rocket - Pass Details

Date: 29 October 2020
Orbit: 971 x 1006 km, 82.9° (Epoch: 30 November)

Event Time Altitude Azimuth Distance (km) Brightness Sun altitude
Rises 12:28:08 0° 191° (S) 3,667 7.0 -7.5°
Reaches altitude 10° 12:30:38 10° 193° (SSW) 2,727 6.4 -7.0°
Maximum altitude 12:36:53 72° 278° (W) 1,036 4.0 -5.8°
Drops below altitude 10° 12:43:14 10° 3° (N) 2,769 6.3 -4.6°
Sets 12:45:48 0° 5° (N) 3,726 7.0 -4.1°
